This is the latest recevied weather packets stored in our database for station/object KD8NVS-13. If no packets are shown the sender has not sent any weather packets the latest 1 day(s).
| Time | Temp. | Humidity | Pressure | Rain* | Wind** | Luminosity | Snow |
|---|---|---|---|---|---|---|---|
| 1778095279 | 15° C | 49% | 1001.8 hPa | 0 mm | - | 212 W/m² | - |
| 1778094976 | 15° C | 49% | 1002.1 hPa | 0 mm | - | 271 W/m² | - |
| 1778093157 | 15° C | 50% | 1002.1 hPa | 0 mm | - | 342 W/m² | - |
| 1778089822 | 14.44° C | 46% | 1002.5 hPa | 0 mm | - | 363 W/m² | - |
| 1778089521 | 14.44° C | 47% | 1002.5 hPa | 0 mm | - | 328 W/m² | - |
| 1778087095 | 13.89° C | 51% | 1002.1 hPa | 0 mm | - | 84 W/m² | - |
| 1778086177 | 13.89° C | 54% | 1002.5 hPa | 0 mm | - | 164 W/m² | - |
| 1778085266 | 12.78° C | 60% | 1002.5 hPa | 0 mm | - | 297 W/m² | - |
| 1778084961 | 13.33° C | 62% | 1002.5 hPa | 0 mm | - | 206 W/m² | - |
| 1778084351 | 12.78° C | 62% | 1002.1 hPa | 0 mm | - | 205 W/m² | - |
| 1778083745 | 12.78° C | 65% | 1002.5 hPa | 0 mm | - | 218 W/m² | - |
| 1778083140 | 12.78° C | 68% | 1002.5 hPa | 0 mm | - | 329 W/m² | - |
| 1778079594 | 10.56° C | 76% | 1001.8 hPa | 0 mm | - | 339 W/m² | - |
| 1778078383 | 10.56° C | 83% | 1001.8 hPa | 0 mm | - | 248 W/m² | - |
| 1778076871 | 10° C | 87% | 1001.1 hPa | 0 mm | - | 268 W/m² | - |
| 1778076570 | 10° C | 87% | 1001.1 hPa | 0 mm | - | 173 W/m² | - |
| 1778075963 | 10.56° C | 88% | 1000.8 hPa | 0 mm | - | 202 W/m² | - |
| 1778075356 | 10° C | 88% | 1000.5 hPa | 0 mm | - | 240 W/m² | - |
| 1778073234 | 10° C | 91% | 1000.8 hPa | 0 mm | - | 151 W/m² | - |
| 1778072024 | 9.44° C | 92% | 1000.5 hPa | 0 mm | - | 96 W/m² | - |
| 1778071722 | 9.44° C | 92% | 1000.1 hPa | 0 mm | - | 87 W/m² | - |
| 1778071418 | 9.44° C | 93% | 1000.1 hPa | 0 mm | - | 82 W/m² | - |
| 1778071116 | 9.44° C | 94% | 999.8 hPa | 0 mm | - | 98 W/m² | - |
| 1778069603 | 8.89° C | 97% | 999.8 hPa | 0 mm | - | 80 W/m² | - |
| 1778068695 | 8.33° C | 97% | 999.8 hPa | 0.25 mm | - | 34 W/m² | - |
* Rain latest hour (hover to see other rain measurements)
** Current wind speed in m/s (hover to see current wind gust speed)